Hanscom AFB, MA

3:02 PM EST on February 25, 2017 (GMT -0500)
Hanscom

Weather History for KBED - January, 2012

Change the Weather History Date:

Thursday, January 19, 2012

  Actual Average Record
Temperature  
Mean Temperature 20 °F -  
Max Temperature 30 °F 33 °F 61 °F (1973)
Min Temperature 9 °F 13 °F -13 °F (1971)
Degree Days  
Heating Degree Days 46    
Moisture  
Dew Point 14 °F    
Average Humidity 68    
Maximum Humidity 100    
Minimum Humidity 47    
Precipitation  
Precipitation 0.05 in - - ()
Sea Level Pressure  
Sea Level Pressure 30.16 in    
Wind  
Wind Speed 5 mph (SE)    
Max Wind Speed 16 mph    
Max Gust Speed 18 mph    
Visibility 9 miles    
Events Fog , Snow    
Averages and records for this station are not official NWS values.
T = Trace of Precipitation, MM = Missing Value Source: NWS Daily Summary

Daily Weather History Graph

Daily Weather History Graph

Search for Another Location

Airport or City:

Trip Planner

Search our weather history database for the weather conditions in past years. The results will help you decide how hot, cold, wet, or windy it might be!

Date:

Astronomy

Jan. 19, 2012 Rise Set
Actual Time 7:10 AM EST 4:41 PM EST
Civil Twilight 6:39 AM EST 5:12 PM EST
Nautical Twilight 6:04 AM EST 5:47 PM EST
Astronomical Twilight 5:31 AM EST 6:20 PM EST
Moon 3:44 AM EST (1/19) 1:09 PM EST (1/19)
Length of Visible Light 10h 33m
Length of Day
9h 31m
Waning Crescent, 16% of the Moon is Illuminated
Jan 19
Waning Crescent
Jan 23
New
Jan 30
First Quarter
Feb 7
Full
Feb 14
Last Quarter

Hourly Weather History & Observations

Time (EST) Temp. Windchill Dew Point Humidity Pressure Visibility Wind Dir Wind Speed Gust Speed Precip Events Conditions
12:56 AM 17.1 °F 11.7 °F -0.0 °F 47% 30.21 in 10.0 mi NNW 3.5 mph - N/A   Clear
1:56 AM 15.1 °F 7.7 °F -0.0 °F 51% 30.21 in 10.0 mi WNW 4.6 mph - N/A   Clear
2:56 AM 15.1 °F 6.4 °F -0.0 °F 51% 30.23 in 10.0 mi WNW 5.8 mph - N/A   Clear
3:56 AM 14.0 °F - -0.0 °F 54% 30.24 in 10.0 mi Calm Calm - N/A   Clear
4:56 AM 12.0 °F - 3.0 °F 67% 30.26 in 10.0 mi Calm Calm - N/A   Clear
5:56 AM 10.9 °F - 3.9 °F 73% 30.28 in 10.0 mi Calm Calm - N/A   Clear
6:56 AM 9.0 °F - 3.9 °F 80% 30.32 in 10.0 mi Calm Calm - N/A   Clear
7:56 AM 10.9 °F - 7.0 °F 84% 30.34 in 10.0 mi Calm Calm - N/A   Clear
8:56 AM 18.0 °F 9.8 °F 3.9 °F 54% 30.35 in 10.0 mi North 5.8 mph - N/A   Clear
9:56 AM 19.4 °F 12.8 °F 3.2 °F 49% 30.28 in 10.0 mi North 4.6 mph - N/A   Clear
10:56 AM 23.0 °F - 8.6 °F 54% 30.24 in 10.0 mi Calm Calm - N/A   Clear
11:56 AM 26.1 °F - 10.0 °F 51% 30.27 in 10.0 mi Calm Calm - N/A   Clear
12:56 PM 28.0 °F 24.2 °F 12.9 °F 53% 30.23 in 10.0 mi Variable 3.5 mph - N/A   Clear
1:56 PM 28.0 °F 18.6 °F 17.1 °F 63% 30.22 in 10.0 mi ESE 10.4 mph - N/A   Overcast
2:12 PM 28.4 °F 18.0 °F 19.4 °F 69% 30.15 in 10.0 mi SE 12.7 mph - N/A   Overcast
2:39 PM 28.4 °F 19.1 °F 17.6 °F 64% 30.13 in 10.0 mi ESE 10.4 mph - N/A   Overcast
2:56 PM 27.0 °F 14.7 °F 19.0 °F 72% 30.17 in 10.0 mi East 16.1 mph - N/A   Mostly Cloudy
3:56 PM 27.0 °F 19.5 °F 16.0 °F 63% 30.19 in 10.0 mi ESE 6.9 mph - N/A   Clear
4:13 PM 26.6 °F 17.5 °F 15.8 °F 64% 30.12 in 10.0 mi ESE 9.2 mph - N/A   Mostly Cloudy
4:56 PM 27.0 °F 18.0 °F 17.1 °F 66% 30.16 in 10.0 mi SE 9.2 mph - N/A   Mostly Cloudy
5:56 PM 27.0 °F 19.5 °F 18.0 °F 69% 30.15 in 10.0 mi SE 6.9 mph - N/A   Scattered Clouds
6:56 PM 26.6 °F 18.2 °F 17.6 °F 69% 30.09 in 10.0 mi SSE 8.1 mph - N/A   Mostly Cloudy
7:56 PM 27.0 °F 20.5 °F 19.0 °F 72% 30.12 in 10.0 mi SSE 5.8 mph - N/A   Overcast
8:56 PM 28.0 °F 20.8 °F 19.9 °F 72% 30.07 in 10.0 mi ESE 6.9 mph - N/A   Overcast
9:56 PM 30.2 °F 21.3 °F 21.2 °F 69% 29.98 in 10.0 mi SE 10.4 mph - N/A   Overcast
10:56 PM 30.0 °F 19.5 °F 25.0 °F 82% 30.01 in 2.5 mi SSE 13.8 mph 18.4 mph 0.00 in Snow Light Snow
10:59 PM 30.2 °F 20.2 °F 24.8 °F 80% 29.96 in 1.8 mi SSE 12.7 mph 18.4 mph 0.00 in Snow Light Snow
11:21 PM 28.4 °F 20.4 °F 26.6 °F 93% 29.97 in 1.0 mi South 8.1 mph - 0.00 in Snow Light Snow
11:27 PM 28.4 °F 21.2 °F 26.6 °F 93% 29.96 in 0.8 mi South 6.9 mph - 0.01 in Snow Light Snow
11:56 PM 28.0 °F 24.2 °F 28.0 °F 100% 30.01 in 0.5 mi SSW 3.5 mph - 0.05 in Fog , Snow Snow